Flag for U.S.A. Weather past 2 weeks in Baker Island, U.S.A.

82 °F

Passing clouds.

Feels Like: 92 °F
Forecast: 81 / 88 °F
Wind: 15 mph from East

Location: Funafuti

Current Time: Oct 7, 2015 at 4:10:42 AM

Latest Report: Oct 7, 2015 at 3:00 AM

Visibility: N/A

Pressure: 29.74 "Hg

Humidity: 89%

Dew point: 79 °F

Location of Baker IslandLocation

Historic Weather in Baker Island — Graph


Baker Island temperature yesterday

Maximum temperature yesterday: 86 °F (at 9:00 AM)
Minimum temperature yesterday: 81 °F (at 11:00 PM)
Average temperature yesterday: 84 °F

Past Weeks' High & Low Weather Summary

High102 °F (Sep 28, 6:00 PM)94% (Oct 6, 11:00 PM)29.95 "Hg (Oct 6, 11:00 PM)
Low81 °F (Sep 27, 2:00 AM)13% (Sep 29, 3:00 PM)29.71 "Hg (Sep 24, 2:00 PM)
Average85 °F77%29.82 "Hg
* Reported Sep 22 3:00 AM — Oct 7 3:00 AM, Baker Island, Weather by CustomWeather, © 2015

Note: Actual official high and low records may vary slightly from our data, if they occured in-between our weather recording intervals... More about our weather records


Baker Island weather history for previous 24 hours

Time TempWeatherWind HumidityBarometerVisibility
3:00 AM
Wed, Oct 7
82 °FPassing clouds.15 mph89%29.74 "HgN/A
2:00 AM82 °FScattered showers. Mostly cloudy.9 mph89%29.77 "HgN/A
1:00 AM81 °FScattered showers. Mostly cloudy.7 mph94%29.80 "HgN/A
12:00 AM82 °FScattered showers. Overcast.8 mph89%29.83 "HgN/A
11:00 PM
Tue, Oct 6
81 °FScattered showers. Overcast.8 mph94%29.86 "HgN/A
10:00 PM82 °FSprinkles. Overcast.14 mph89%29.83 "HgN/A
9:00 PM84 °FScattered showers. Overcast.9 mph89%29.83 "HgN/A
8:00 PM84 °FPassing clouds.8 mph89%29.83 "HgN/A
7:00 PM84 °FPartly cloudy.8 mph89%29.80 "HgN/A
6:00 PM84 °FScattered showers. Mostly cloudy.10 mph84%29.77 "HgN/A
5:00 PM84 °FScattered showers. More clouds than sun.10 mph89%29.74 "HgN/A
4:00 PM84 °FScattered showers. Broken clouds.12 mph84%29.74 "HgN/A
3:00 PM84 °FScattered showers. More clouds than sun.10 mph84%29.74 "HgN/A
2:00 PM84 °FScattered showers. Mostly cloudy.9 mph84%29.74 "HgN/A
1:00 PM84 °FSprinkles. More clouds than sun.10 mph84%29.77 "HgN/A
12:00 PM86 °FScattered showers. More clouds than sun.9 mph79%29.80 "HgN/A
11:00 AM84 °FScattered showers. More clouds than sun.10 mph84%29.83 "HgN/A
10:00 AM84 °FScattered showers. More clouds than sun.9 mph79%29.83 "HgN/A
9:00 AM86 °FScattered showers. More clouds than sun.13 mph75%29.83 "HgN/A
8:00 AM84 °FMore clouds than sun.14 mph79%29.83 "HgN/A
7:00 AM82 °FScattered showers. More clouds than sun.14 mph84%29.80 "HgN/A
6:00 AM82 °FScattered showers. More clouds than sun.18 mph89%29.80 "HgN/A
5:00 AM82 °FScattered showers. Mostly cloudy.9 mph84%29.74 "HgN/A
4:00 AM82 °FScattered showers. Partly cloudy.12 mph89%29.77 "HgN/A
Weather by CustomWeather, © 2015

See weather overviewHow to use our weather pages